NSZ3529 EGNT-EKCH

Flight info

Callsign NSZ3529
Flight time 1h 22m
Altitude 35000
Route NATEB DCT GIVEM DCT SURAT DCT PETIL DCT TESPI
Aircraft B38M/M-SDE1FGHILORVWXY/HB1

Departure

Time 2026-04-25 21:52
Airport Newcastle International Airport (EGNT)

Arrival

Time 2026-04-25 23:15
Airport Copenhagen Kastrup Airport (EKCH)
Time Latitude Longitude Altitude Speed Heading
2026-04-25 21:10 55.03735 -1.70670 270 ft 0 kts 184°
2026-04-25 21:21 55.03732 -1.70671 270 ft 0 kts 184°
2026-04-25 21:39 55.03755 -1.70668 270 ft 4 kts 184°
2026-04-25 21:39 55.03782 -1.70666 270 ft 4 kts 174°
2026-04-25 21:39 55.03803 -1.70679 270 ft 4 kts 123°
2026-04-25 21:40 55.03807 -1.70710 270 ft 4 kts 94°
2026-04-25 21:40 55.03808 -1.70734 270 ft 0 kts 94°
2026-04-25 21:43 55.03808 -1.70724 270 ft 2 kts 94°
2026-04-25 21:43 55.03806 -1.70670 270 ft 7 kts 94°
2026-04-25 21:44 55.03800 -1.70531 270 ft 15 kts 94°
2026-04-25 21:44 55.03750 -1.70425 270 ft 14 kts 182°
2026-04-25 21:44 55.03593 -1.70542 270 ft 14 kts 266°
2026-04-25 21:45 55.03552 -1.70640 269 ft 8 kts 187°
2026-04-25 21:45 55.03531 -1.70641 270 ft 0 kts 181°
2026-04-25 21:47 55.03525 -1.70642 270 ft 0 kts 181°
2026-04-25 21:48 55.03514 -1.70642 270 ft 3 kts 182°
2026-04-25 21:48 55.03483 -1.70644 270 ft 6 kts 182°
2026-04-25 21:48 55.03468 -1.70645 270 ft 1 kts 182°
2026-04-25 21:48 55.03456 -1.70646 270 ft 3 kts 182°
2026-04-25 21:49 55.03410 -1.70635 270 ft 11 kts 161°
2026-04-25 21:49 55.03375 -1.70553 270 ft 11 kts 74°
2026-04-25 21:49 55.03386 -1.70509 269 ft 0 kts 65°
2026-04-25 21:52 55.03412 -1.70410 269 ft 41 kts 65°
2026-04-25 21:52 55.03665 -1.69463 259 ft 128 kts 65°
2026-04-25 21:52 55.04111 -1.67763 634 ft 164 kts 67°
2026-04-25 21:52 55.04571 -1.65966 1734 ft 164 kts 68°
2026-04-25 21:53 55.05065 -1.64120 2600 ft 177 kts 65°
2026-04-25 21:53 55.05649 -1.62066 3244 ft 202 kts 64°
2026-04-25 21:53 55.06273 -1.59675 3833 ft 230 kts 75°
2026-04-25 21:53 55.06257 -1.56839 4567 ft 250 kts 109°
2026-04-25 21:54 55.05230 -1.54265 5279 ft 266 kts 142°
2026-04-25 21:54 55.03567 -1.53042 5449 ft 267 kts 178°
2026-04-25 21:54 55.01691 -1.53140 5702 ft 275 kts 182°
2026-04-25 21:54 54.99786 -1.53188 6815 ft 274 kts 182°
2026-04-25 21:55 54.97850 -1.53380 7193 ft 279 kts 195°
2026-04-25 21:55 54.96120 -1.54761 7323 ft 275 kts 212°
2026-04-25 21:55 54.94452 -1.56461 7458 ft 277 kts 211°
2026-04-25 21:55 54.92784 -1.58156 7600 ft 277 kts 212°
2026-04-25 21:56 54.91210 -1.59764 7748 ft 278 kts 212°
2026-04-25 21:56 54.90110 -1.60892 7846 ft 278 kts 212°
2026-04-25 21:56 54.87878 -1.63183 8042 ft 279 kts 212°
2026-04-25 21:56 54.86207 -1.64898 8192 ft 280 kts 212°
2026-04-25 21:57 54.84527 -1.66622 8293 ft 280 kts 212°
2026-04-25 21:57 54.82846 -1.68346 8318 ft 280 kts 212°
2026-04-25 21:57 54.81166 -1.70067 8316 ft 280 kts 212°
2026-04-25 21:57 54.79645 -1.72157 8569 ft 280 kts 235°
2026-04-25 21:58 54.78970 -1.75184 9784 ft 270 kts 264°
2026-04-25 21:58 54.79169 -1.78456 10588 ft 283 kts 290°
2026-04-25 21:58 54.80289 -1.81374 11151 ft 303 kts 319°
2026-04-25 21:58 54.82187 -1.83059 11853 ft 317 kts 347°
2026-04-25 21:59 54.84422 -1.82937 12616 ft 330 kts 17°
2026-04-25 21:59 54.86399 -1.80911 13529 ft 336 kts 44°
2026-04-25 21:59 54.87807 -1.77696 14344 ft 343 kts 55°
2026-04-25 22:00 54.91736 -1.73395 15910 ft 345 kts
2026-04-25 22:00 54.94136 -1.72863 16637 ft 351 kts
2026-04-25 22:00 54.96521 -1.72148 17395 ft 354 kts
2026-04-25 22:00 54.98975 -1.71386 18153 ft 359 kts
2026-04-25 22:01 55.01394 -1.70198 18831 ft 365 kts 24°
2026-04-25 22:01 55.03487 -1.67682 19475 ft 370 kts 44°
2026-04-25 22:01 55.05016 -1.64058 20096 ft 376 kts 63°
2026-04-25 22:01 55.05715 -1.61278 20499 ft 378 kts 66°
2026-04-25 22:02 55.07075 -1.55553 21288 ft 384 kts 67°
2026-04-25 22:02 55.08085 -1.51215 21895 ft 388 kts 67°
2026-04-25 22:02 55.09093 -1.46821 22489 ft 392 kts 67°
2026-04-25 22:02 55.10103 -1.42378 23081 ft 395 kts 67°
2026-04-25 22:03 55.11120 -1.37889 23661 ft 399 kts 68°
2026-04-25 22:03 55.12143 -1.33362 24177 ft 402 kts 68°
2026-04-25 22:03 55.13171 -1.28794 24650 ft 405 kts 68°
2026-04-25 22:03 55.14206 -1.24191 25146 ft 408 kts 68°
2026-04-25 22:04 55.15249 -1.19541 25600 ft 411 kts 68°
2026-04-25 22:04 55.16279 -1.14942 26076 ft 413 kts 68°
2026-04-25 22:04 55.17342 -1.10179 26552 ft 416 kts 69°
2026-04-25 22:04 55.18382 -1.05514 26996 ft 419 kts 69°
2026-04-25 22:05 55.19441 -1.00747 27439 ft 422 kts 69°
2026-04-25 22:05 55.20505 -0.95950 27881 ft 424 kts 69°
2026-04-25 22:05 55.21573 -0.91121 28309 ft 427 kts 69°
2026-04-25 22:05 55.22647 -0.86257 28729 ft 430 kts 69°
2026-04-25 22:06 55.23728 -0.81350 29152 ft 432 kts 69°
2026-04-25 22:06 55.24814 -0.76408 29554 ft 435 kts 70°
2026-04-25 22:06 55.25536 -0.73118 29828 ft 437 kts 70°
2026-04-25 22:06 55.26624 -0.68145 30223 ft 439 kts 70°
2026-04-25 22:07 55.27722 -0.63118 30564 ft 442 kts 70°
2026-04-25 22:07 55.28822 -0.58066 30902 ft 444 kts 70°
2026-04-25 22:07 55.29925 -0.52988 31255 ft 446 kts 70°
2026-04-25 22:07 55.31033 -0.47879 31584 ft 448 kts 70°
2026-04-25 22:08 55.32141 -0.42753 31908 ft 450 kts 70°
2026-04-25 22:08 55.33254 -0.37592 32238 ft 452 kts 70°
2026-04-25 22:08 55.34365 -0.32427 32558 ft 454 kts 70°
2026-04-25 22:08 55.35483 -0.27212 32877 ft 456 kts 70°
2026-04-25 22:09 55.36604 -0.21975 33183 ft 458 kts 70°
2026-04-25 22:09 55.37724 -0.16728 33556 ft 459 kts 70°
2026-04-25 22:09 55.38840 -0.11486 34001 ft 457 kts 70°
2026-04-25 22:09 55.39955 -0.06234 34405 ft 457 kts 70°
2026-04-25 22:10 55.41050 -0.01067 34757 ft 456 kts 70°
2026-04-25 22:10 55.42153 0.04150 35122 ft 455 kts 70°
2026-04-25 22:10 55.43271 0.09453 35330 ft 456 kts 70°
2026-04-25 22:10 55.44355 0.14605 35339 ft 453 kts 70°
2026-04-25 22:11 55.46487 0.25015 35321 ft 451 kts 75°
2026-04-25 22:11 55.48044 0.35809 35326 ft 451 kts 75°
2026-04-25 22:12 55.49656 0.46485 35323 ft 451 kts 75°
2026-04-25 22:12 55.51002 0.55377 35326 ft 451 kts 75°
2026-04-25 22:13 55.52873 0.67808 35326 ft 451 kts 75°
2026-04-25 22:13 55.54472 0.78510 35331 ft 450 kts 75°
2026-04-25 22:14 55.56061 0.89211 35326 ft 450 kts 75°
2026-04-25 22:14 55.57637 0.99901 35327 ft 450 kts 75°
2026-04-25 22:15 55.59207 1.10614 35327 ft 450 kts 75°
2026-04-25 22:16 55.61541 1.26686 35328 ft 450 kts 75°
2026-04-25 22:16 55.63075 1.37337 35322 ft 449 kts 75°
2026-04-25 22:17 55.64609 1.48061 35325 ft 449 kts 75°
2026-04-25 22:17 55.66137 1.58816 35321 ft 450 kts 75°
2026-04-25 22:18 55.67653 1.69563 35321 ft 450 kts 75°
2026-04-25 22:18 55.69161 1.80326 35319 ft 450 kts 75°
2026-04-25 22:19 55.70659 1.91098 35321 ft 450 kts 75°
2026-04-25 22:19 55.72149 2.01886 35327 ft 450 kts 75°
2026-04-25 22:20 55.73631 2.12690 35320 ft 450 kts 75°
2026-04-25 22:20 55.75102 2.23490 35322 ft 451 kts 75°
2026-04-25 22:21 55.76558 2.34267 35323 ft 451 kts 75°
2026-04-25 22:21 55.78015 2.45123 35315 ft 451 kts 75°
2026-04-25 22:22 55.79460 2.55965 35314 ft 452 kts 75°
2026-04-25 22:22 55.80899 2.66846 35312 ft 452 kts 75°
2026-04-25 22:23 55.82326 2.77721 35306 ft 452 kts 75°
2026-04-25 22:23 55.83748 2.88632 35312 ft 452 kts 75°
2026-04-25 22:24 55.85156 2.99524 35312 ft 452 kts 75°
2026-04-25 22:24 55.86564 3.10492 35313 ft 453 kts 75°
2026-04-25 22:25 55.87955 3.21405 35294 ft 453 kts 75°
2026-04-25 22:25 55.89341 3.32348 35285 ft 453 kts 75°
2026-04-25 22:26 55.90719 3.43296 35272 ft 453 kts 75°
2026-04-25 22:26 55.91655 3.54324 35273 ft 455 kts 87°
2026-04-25 22:27 55.91805 3.65642 35265 ft 457 kts 86°
2026-04-25 22:27 55.91949 3.76969 35278 ft 457 kts 86°
2026-04-25 22:28 55.92082 3.88300 35288 ft 457 kts 86°
2026-04-25 22:28 55.92204 3.99646 35292 ft 457 kts 86°
2026-04-25 22:29 55.92316 4.10983 35291 ft 457 kts 86°
2026-04-25 22:29 55.92418 4.22330 35288 ft 458 kts 86°
2026-04-25 22:30 55.92551 4.39374 35282 ft 458 kts 86°
2026-04-25 22:30 55.92614 4.48817 35283 ft 459 kts 86°
2026-04-25 22:31 55.92691 4.62105 35282 ft 459 kts 86°
2026-04-25 22:31 55.92746 4.73432 35281 ft 459 kts 86°
2026-04-25 22:32 55.92790 4.84817 35275 ft 459 kts 86°
2026-04-25 22:32 55.92824 4.96219 35276 ft 460 kts 86°
2026-04-25 22:33 55.92847 5.07631 35273 ft 460 kts 86°
2026-04-25 22:33 55.92860 5.19079 35273 ft 461 kts 86°
2026-04-25 22:34 55.92862 5.30503 35271 ft 461 kts 86°
2026-04-25 22:34 55.92854 5.41879 35266 ft 461 kts 86°
2026-04-25 22:35 55.92834 5.53336 35263 ft 462 kts 86°
2026-04-25 22:35 55.92805 5.64799 35260 ft 462 kts 86°
2026-04-25 22:36 55.92765 5.76274 35256 ft 462 kts 86°
2026-04-25 22:36 55.92714 5.87744 35256 ft 463 kts 87°
2026-04-25 22:37 55.92652 5.99161 35253 ft 463 kts 87°
2026-04-25 22:37 55.92580 6.10662 35247 ft 464 kts 87°
2026-04-25 22:38 55.92497 6.22156 35244 ft 464 kts 87°
2026-04-25 22:38 55.92403 6.33665 35243 ft 464 kts 87°
2026-04-25 22:39 55.92298 6.45176 35236 ft 465 kts 87°
2026-04-25 22:39 55.92183 6.56719 35234 ft 465 kts 87°
2026-04-25 22:40 55.92057 6.68185 35231 ft 466 kts 87°
2026-04-25 22:40 55.91919 6.79741 35229 ft 466 kts 88°
2026-04-25 22:41 55.91771 6.91297 35222 ft 466 kts 88°
2026-04-25 22:41 55.91612 7.02873 35218 ft 467 kts 88°
2026-04-25 22:42 55.91441 7.14454 35205 ft 467 kts 88°
2026-04-25 22:42 55.91260 7.26023 35211 ft 468 kts 88°
2026-04-25 22:43 55.91067 7.37629 35204 ft 468 kts 88°
2026-04-25 22:43 55.90864 7.49237 35203 ft 468 kts 88°
2026-04-25 22:44 55.90649 7.60843 35198 ft 469 kts 88°
2026-04-25 22:44 55.90426 7.72383 35198 ft 469 kts 88°
2026-04-25 22:45 55.90189 7.84014 35191 ft 470 kts 88°
2026-04-25 22:45 55.89941 7.95649 35189 ft 470 kts 89°
2026-04-25 22:46 55.89681 8.07311 35186 ft 471 kts 89°
2026-04-25 22:46 55.89411 8.18967 35183 ft 471 kts 89°
2026-04-25 22:47 55.89129 8.30630 35181 ft 471 kts 89°
2026-04-25 22:47 55.88837 8.42307 35182 ft 472 kts 89°
2026-04-25 22:48 55.88549 8.53372 35172 ft 473 kts 89°
2026-04-25 22:48 55.88235 8.65001 35171 ft 471 kts 89°
2026-04-25 22:49 55.87916 8.76468 35171 ft 460 kts 89°
2026-04-25 22:49 55.87753 8.82152 34965 ft 458 kts 89°
2026-04-25 22:49 55.87589 8.87812 34639 ft 455 kts 89°
2026-04-25 22:50 55.87423 8.93417 34327 ft 453 kts 89°
2026-04-25 22:50 55.87256 8.99005 34083 ft 450 kts 89°
2026-04-25 22:50 55.87086 9.04585 33809 ft 450 kts 89°
2026-04-25 22:50 55.86915 9.10139 33515 ft 448 kts 89°
2026-04-25 22:51 55.86741 9.15678 33219 ft 447 kts 89°
2026-04-25 22:51 55.86566 9.21188 32924 ft 445 kts 89°
2026-04-25 22:51 55.86389 9.26683 32637 ft 444 kts 89°
2026-04-25 22:51 55.86210 9.32162 32356 ft 442 kts 89°
2026-04-25 22:52 55.86032 9.37545 32079 ft 441 kts 90°
2026-04-25 22:52 55.85853 9.42852 31804 ft 439 kts 90°
2026-04-25 22:52 55.85660 9.46506 31597 ft 440 kts 97°
2026-04-25 22:52 55.84843 9.51750 31125 ft 440 kts 105°
2026-04-25 22:53 55.83789 9.58730 30308 ft 442 kts 101°
2026-04-25 22:53 55.83293 9.62311 29869 ft 443 kts 101°
2026-04-25 22:53 55.82567 9.67646 29202 ft 444 kts 101°
2026-04-25 22:53 55.81850 9.72987 28551 ft 445 kts 101°
2026-04-25 22:54 55.81131 9.78346 27908 ft 445 kts 101°
2026-04-25 22:54 55.80426 9.83587 27320 ft 437 kts 101°
2026-04-25 22:54 55.79716 9.88862 26705 ft 428 kts 101°
2026-04-25 22:54 55.79027 9.93957 26121 ft 421 kts 101°
2026-04-25 22:55 55.78354 9.98920 25560 ft 415 kts 101°
2026-04-25 22:55 55.77682 10.03857 24984 ft 409 kts 101°
2026-04-25 22:55 55.77016 10.08733 24424 ft 404 kts 102°
2026-04-25 22:55 55.76356 10.13554 23871 ft 400 kts 102°
2026-04-25 22:56 55.75701 10.18324 23255 ft 396 kts 102°
2026-04-25 22:56 55.75050 10.23047 22813 ft 393 kts 102°
2026-04-25 22:56 55.74400 10.27746 22372 ft 392 kts 102°
2026-04-25 22:56 55.73762 10.32346 21936 ft 393 kts 102°
2026-04-25 22:57 55.73110 10.37035 21497 ft 393 kts 101°
2026-04-25 22:57 55.72451 10.41754 21054 ft 393 kts 102°
2026-04-25 22:57 55.71794 10.46448 20632 ft 393 kts 101°
2026-04-25 22:57 55.71136 10.51140 20210 ft 390 kts 101°
2026-04-25 22:58 55.70483 10.55774 19796 ft 385 kts 101°
2026-04-25 22:58 55.69836 10.60349 19385 ft 380 kts 102°
2026-04-25 22:58 55.69198 10.64860 18982 ft 376 kts 101°
2026-04-25 22:58 55.68562 10.69340 18582 ft 375 kts 101°
2026-04-25 22:59 55.67922 10.73831 18153 ft 374 kts 101°
2026-04-25 22:59 55.67284 10.78289 17694 ft 374 kts 101°
2026-04-25 22:59 55.66645 10.82749 17250 ft 373 kts 101°
2026-04-25 22:59 55.66006 10.87194 16812 ft 371 kts 101°
2026-04-25 23:00 55.65372 10.91593 16381 ft 366 kts 101°
2026-04-25 23:00 55.64745 10.95936 15952 ft 362 kts 101°
2026-04-25 23:00 55.64122 11.00229 15529 ft 358 kts 101°
2026-04-25 23:00 55.63506 11.04469 15121 ft 354 kts 101°
2026-04-25 23:01 55.62892 11.08685 14708 ft 351 kts 101°
2026-04-25 23:01 55.62292 11.12794 14308 ft 348 kts 101°
2026-04-25 23:01 55.61687 11.16925 13906 ft 345 kts 101°
2026-04-25 23:01 55.61084 11.21030 13458 ft 342 kts 101°
2026-04-25 23:02 55.60486 11.25093 13022 ft 340 kts 101°
2026-04-25 23:02 55.59892 11.29110 12579 ft 337 kts 102°
2026-04-25 23:02 55.59302 11.33103 12158 ft 334 kts 102°
2026-04-25 23:02 55.58714 11.37065 11736 ft 332 kts 102°
2026-04-25 23:03 55.58129 11.40998 11328 ft 329 kts 102°
2026-04-25 23:03 55.57548 11.44892 10886 ft 326 kts 102°
2026-04-25 23:03 55.56969 11.48763 10483 ft 323 kts 102°
2026-04-25 23:03 55.56400 11.52571 10145 ft 319 kts 102°
2026-04-25 23:04 55.55831 11.56361 9807 ft 318 kts 102°
2026-04-25 23:04 55.55262 11.60138 9471 ft 317 kts 102°
2026-04-25 23:04 55.54701 11.63861 9136 ft 316 kts 102°
2026-04-25 23:04 55.54141 11.67561 8814 ft 305 kts 102°
2026-04-25 23:05 55.53594 11.71175 8513 ft 303 kts 102°
2026-04-25 23:05 55.53058 11.74703 8202 ft 299 kts 103°
2026-04-25 23:05 55.52524 11.78214 7900 ft 292 kts 103°
2026-04-25 23:05 55.52001 11.81647 7609 ft 288 kts 103°
2026-04-25 23:06 55.51476 11.85075 7312 ft 288 kts 103°
2026-04-25 23:06 55.50956 11.88475 7015 ft 288 kts 103°
2026-04-25 23:06 55.50431 11.91893 6710 ft 287 kts 103°
2026-04-25 23:06 55.49908 11.95297 6413 ft 286 kts 103°
2026-04-25 23:07 55.49427 11.98419 6113 ft 283 kts 103°
2026-04-25 23:07 55.48915 12.01735 5805 ft 274 kts 103°
2026-04-25 23:07 55.48419 12.04939 5521 ft 265 kts 103°
2026-04-25 23:07 55.47938 12.08048 5289 ft 261 kts 103°
2026-04-25 23:08 55.47458 12.11136 5014 ft 261 kts 103°
2026-04-25 23:08 55.46984 12.14190 4709 ft 261 kts 103°
2026-04-25 23:08 55.46508 12.17240 4500 ft 256 kts 103°
2026-04-25 23:08 55.46042 12.20223 4339 ft 250 kts 103°
2026-04-25 23:09 55.45587 12.23132 4105 ft 241 kts 103°
2026-04-25 23:09 55.45148 12.25934 3884 ft 233 kts 103°
2026-04-25 23:09 55.44720 12.28659 3731 ft 228 kts 103°
2026-04-25 23:09 55.44296 12.31358 3578 ft 226 kts 103°
2026-04-25 23:10 55.43960 12.34015 3406 ft 223 kts 88°
2026-04-25 23:10 55.44277 12.36605 3246 ft 213 kts 59°
2026-04-25 23:10 55.45136 12.38665 3111 ft 207 kts 40°
2026-04-25 23:10 55.46192 12.40334 3031 ft 199 kts 37°
2026-04-25 23:11 55.47205 12.41872 3038 ft 187 kts 36°
2026-04-25 23:11 55.48186 12.43373 2965 ft 186 kts 36°
2026-04-25 23:11 55.49163 12.44871 2753 ft 185 kts 37°
2026-04-25 23:11 55.50131 12.46358 2527 ft 183 kts 36°
2026-04-25 23:12 55.51070 12.47803 2281 ft 175 kts 36°
2026-04-25 23:12 55.51971 12.49189 2041 ft 170 kts 36°
2026-04-25 23:12 55.52830 12.50512 1852 ft 158 kts 36°
2026-04-25 23:12 55.53619 12.51729 1640 ft 145 kts 35°
2026-04-25 23:13 55.54366 12.52877 1427 ft 144 kts 36°
2026-04-25 23:13 55.55123 12.54041 1232 ft 144 kts 35°
2026-04-25 23:13 55.55878 12.55207 1017 ft 144 kts 37°
2026-04-25 23:13 55.56629 12.56377 794 ft 144 kts 37°
2026-04-25 23:14 55.57378 12.57524 562 ft 142 kts 37°
2026-04-25 23:14 55.58122 12.58655 333 ft 141 kts 36°
2026-04-25 23:14 55.58860 12.59798 153 ft 141 kts 37°
2026-04-25 23:14 55.59591 12.60921 29 ft 133 kts 36°
2026-04-25 23:15 55.60123 12.61737 28 ft 70 kts 41°
2026-04-25 23:15 55.60351 12.62096 25 ft 33 kts 41°
2026-04-25 23:15 55.60551 12.62312 28 ft 35 kts 19°
2026-04-25 23:15 55.60703 12.62368 27 ft 21 kts 10°
2026-04-25 23:16 55.60844 12.62469 26 ft 24 kts 37°
2026-04-25 23:16 55.60968 12.62670 26 ft 24 kts 40°
2026-04-25 23:16 55.61104 12.62884 26 ft 28 kts 40°
2026-04-25 23:16 55.61250 12.63107 26 ft 23 kts 41°
2026-04-25 23:17 55.61373 12.63299 26 ft 25 kts 41°
2026-04-25 23:17 55.61507 12.63507 26 ft 27 kts 41°
2026-04-25 23:17 55.61637 12.63707 26 ft 26 kts 41°
2026-04-25 23:17 55.61765 12.63906 27 ft 23 kts 42°
2026-04-25 23:18 55.61875 12.64070 26 ft 19 kts 33°
2026-04-25 23:18 55.61979 12.64160 28 ft 16 kts 26°
2026-04-25 23:18 55.62084 12.64247 27 ft 18 kts 26°
2026-04-25 23:18 55.62197 12.64342 24 ft 17 kts 25°
2026-04-25 23:19 55.62270 12.64478 27 ft 16 kts 66°
2026-04-25 23:19 55.62309 12.64637 27 ft 14 kts 66°
2026-04-25 23:19 55.62349 12.64794 26 ft 12 kts 66°
2026-04-25 23:19 55.62329 12.64937 26 ft 14 kts 124°
2026-04-25 23:20 55.62277 12.65079 26 ft 13 kts 115°
2026-04-25 23:20 55.62322 12.65204 26 ft 15 kts
2026-04-25 23:20 55.62420 12.65199 26 ft 15 kts 358°
2026-04-25 23:20 55.62525 12.65184 28 ft 15 kts 359°
2026-04-25 23:21 55.62613 12.65180 27 ft 12 kts
2026-04-25 23:21 55.62671 12.65237 26 ft 8 kts 25°
2026-04-25 23:21 55.62703 12.65245 29 ft 4 kts
2026-04-25 23:21 55.62723 12.65249 26 ft 1 kts
2026-04-25 23:22 55.62729 12.65250 27 ft 0 kts